CDT,Max TemperatureF,Mean TemperatureF,Min TemperatureF,Max Dew PointF,MeanDew PointF,Min DewpointF,Max Humidity, Mean Humidity, Min Humidity, Max Sea Level PressureIn, Mean Sea Level PressureIn, Min Sea Level PressureIn, Max VisibilityMiles, Mean VisibilityMiles, Min VisibilityMiles, Max Wind SpeedMPH, Mean Wind SpeedMPH, Max Gust SpeedMPH,PrecipitationIn, CloudCover, Events, WindDirDegrees
2013-10-1,84,75,66,70,66,63,94,76,51,30.12,30.07,30.02,10,10,10,10,3,,0.00,5,,81
2013-10-2,81,75,69,70,67,64,91,79,62,30.12,30.08,30.05,10,10,10,9,3,,0.00,3,Rain,79
2013-10-3,87,76,66,72,67,64,93,76,48,30.11,30.06,30.03,10,10,7,9,2,,0.00,0,,92
2013-10-4,89,79,69,72,69,67,96,77,48,30.11,30.07,30.03,10,9,4,7,2,,0.00,0,,108
2013-10-5,89,80,70,72,70,68,93,79,50,30.08,30.03,29.98,10,9,4,9,3,,0.00,2,,126
2013-10-6,79,74,69,72,70,68,100,93,77,29.98,29.92,29.85,10,6,0,15,2,23,0.69,6,Fog-Rain,151
2013-10-7,79,70,61,70,62,56,97,82,52,29.87,29.83,29.73,10,8,1,12,5,20,0.00,5,Rain,353
2013-10-8,79,67,55,68,61,52,90,77,61,,,,10,10,10,6,3,,0.00,4,Rain,16
2013-10-9,71,66,61,64,61,59,94,86,73,,,,10,10,7,10,5,,0.00,5,,72
2013-10-10,82,70,57,64,59,55,96,83,47,,,,10,7,0,7,1,,0.00,2,Fog-Rain,36
2013-10-11,84,72,59,65,60,57,94,77,43,,,,10,10,8,6,1,,0.00,1,Rain,357
2013-10-12,84,73,62,67,62,59,96,75,43,,,,10,10,7,9,2,,0.00,0,,358
2013-10-13,84,72,59,62,60,57,93,70,41,,,,10,10,7,12,3,17,0.00,0,,23
2013-10-14,82,72,63,64,62,58,93,74,49,,,,10,10,10,10,5,,0.00,0,,58
2013-10-15,75,68,60,64,62,58,97,86,66,,,,10,10,7,8,4,,0.00,3,,56
2013-10-16,82,70,59,65,62,57,96,78,47,,,,10,10,6,5,1,,0.00,1,,4
2013-10-17,82,73,64,72,69,62,96,89,58,,,,10,7,1,9,2,,0.26,6,Rain,224
2013-10-18,75,70,66,66,64,63,94,85,69,,,,10,10,6,8,3,,0.00,6,,10
2013-10-19,73,68,61,64,61,59,94,83,61,,,,10,10,6,7,2,,0.00,5,Rain,2
2013-10-20,75,65,55,59,56,54,100,81,48,30.06,30.02,29.99,10,8,0,8,3,,0.00,3,Fog-Rain,19
2013-10-21,73,65,57,64,59,54,93,82,66,30.08,30.04,30.00,10,10,9,6,2,,0.00,1,Rain,9
2013-10-22,73,67,60,64,62,55,96,85,68,30.00,29.95,29.90,10,8,4,5,1,,0.01,3,Rain,3
2013-10-23,72,62,53,55,46,37,93,64,29,30.14,30.04,29.95,10,10,9,12,2,17,0.00,0,Rain,345
2013-10-24,75,59,43,55,46,41,93,67,34,30.25,30.19,30.13,10,10,10,8,1,,0.00,0,,55
2013-10-25,64,55,44,50,40,33,89,62,31,30.40,30.32,30.21,10,10,10,10,4,18,0.00,0,,9
2013-10-26,69,52,36,47,38,33,89,64,28,30.32,30.26,30.19,10,10,10,6,2,,0.00,0,,37
2013-10-27,73,58,44,57,48,41,93,72,39,30.21,30.16,30.12,10,10,10,5,1,,0.00,1,Rain,147
2013-10-28,79,65,51,58,54,50,96,72,39,30.25,30.20,30.14,10,10,6,5,1,,0.00,2,Rain,160
2013-10-29,80,65,50,61,55,48,97,74,42,30.31,30.25,30.22,10,10,6,8,2,,0.00,0,,97
2013-10-30,81,68,55,64,58,54,97,78,43,30.28,30.21,30.14,10,9,5,7,1,,0.00,0,,116
2013-10-31,77,69,61,72,67,59,100,88,76,30.13,30.02,29.91,10,8,2,16,5,24,0.11,6,Rain,174